www.pogodaiklimat.ru

Погода и климат >> Архив погоды >> Мексика >> Manzanillo


ПОГОДА в Manzanillo

  • Прогноз погоды в Manzanillo
  • Монитор погоды в Manzanillo
  • Климат города

АРХИВ ПОГОДЫ в Manzanillo

Время (UTC), дата Ветер
(напр.,м/с)
 
Видим.   Явления Облачность Т
(С)
Тd
(С)
f
(%)
Тe
(С)
Тes
(С)
Комфортность P
(гПа)
Po
(гПа)
Тmin
(С)
Tmax
(С)
R
(мм)
R24
(мм)
S
(см)
21 12.10 ЮВ 1 6000 м мгла {туман} 6/0 2000 м
[Ac lent]
+30.6 +23.3 65 +41 +49 опасность
перегрева
1009.9 1009.5
00 13.10 С 1 6000 м мгла {туман} 5/1 300 м
[Cu med, cong Ac lent Cs]
+29.8 +23.6 69 +40 +41 очень
душно
1009.1 1008.7 +23.5 +31.9
09 13.10 С 2 6000 м мгла {туман} ясно +25.6 +22.9 85 +34 +34 очень
душно
1011.5 1011.1
12 13.10 С 2 6000 м мгла {туман} ясно +25.3 +22.4 84 +33 +33 очень
душно
1011.2 1010.8 +25.0 +31.9
15 13.10 С 3 6000 м мгла {туман} ясно +27.0 +21.7 73 +35 +38 очень
душно
1011.5 1011.1
18 13.10 ЮЗ 2 6000 м мгла {туман} 1/1 600 м
[Sc diur, vesp]
+31.7 +23.2 61 +42 +57 опасность
перегрева
1012.0 1011.6 +24.8 +32.8
03 14.10 С 3 6000 м мгла {туман} 8/8 600 м
[Sc diur, vesp]
+27.5 +23.1 77 +37 +37 очень
душно
1012.2 1011.8
06 14.10 С 2 6000 м мгла {туман} 3/0 2000 м
[Ac trans]
+26.9 +23.5 82 +37 +37 очень
душно
1012.3 1011.9 +24.8 +33.0
09 14.10 С 1 6000 м мгла {туман} ясно +26.0 +23.6 87 +35 +35 очень
душно
1011.8 1011.4
12 14.10 С 3 6000 м мгла {туман} 3/0 2000 м
[Ac lent]
+25.8 +22.8 84 +34 +34 очень
душно
1011.6 1011.2 +25.7 +33.0
15 14.10 С 2 6000 м мгла {туман} ясно +28.0 +23.2 75 +38 +42 очень
душно
1013.2 1012.8
18 14.10 З 2 6000 м мгла {туман} 3/0
[Ci fib]
+32.1 +25.1 67 +46 +61 опасность
перегрева
1013.8 1013.4 +25.2 +32.9
21 14.10 З 3 7000 м мгла {туман} 4/3 600 м
[Cb cap Ac trans]
+32.8 +24.8 63 +46 +53 опасность
перегрева
1010.9 1010.5
00 15.10 Ю 2 7000 м мгла {туман} 4/3 300 м
[Cb cap Ci fib]
+30.1 +23.8 69 +41 +42 опасность
перегрева
1009.8 1009.4 +25.2 +33.5
03 15.10 З 2 6000 м мгла {туман} ясно +29.1 +24.6 77 +41 +41 опасность
перегрева
1011.2 1010.8
06 15.10 С 2 6000 м мгла {туман} ясно +27.5 +24.4 83 +39 +39 очень
душно
1012.7 1012.3 +25.2 +33.5
09 15.10 С 1 6000 м мгла {туман} ясно +26.5 +24.6 89 +37 +37 очень
душно
1011.3 1011.0
12 15.10 С 2 6000 м мгла {туман} ясно +26.2 +23.5 85 +36 +36 очень
душно
1012.0 1011.6 +25.9 +33.5
15 15.10 С 1 6000 м мгла {туман} ясно +28.7 +22.5 69 +38 +42 очень
душно
1013.0 1012.7
18 15.10 Ю 1 6000 м мгла {туман} ясно +32.2 +24.3 63 +44 +63 опасность
перегрева
1013.3 1012.9 +25.7 +33.6
21 15.10 З 3 7000 м мгла {туман} 3/1 600 м
[Cu med, cong Ci fib]
+32.3 +26.4 71 +49 +57 опасность
перегрева
1010.3 1009.9
00 16.10 З 2 7000 м мгла {туман} 4/1 300 м
[Cb cap Ci fib]
+30.2 +25.9 78 +45 +46 опасность
перегрева
1009.2 1008.8 +25.7 +34.0
03 16.10 З 1 6000 м мгла {туман} ясно +29.3 +25.9 82 +44 +44 опасность
перегрева
1010.5 1010.1
06 16.10 В 2 6000 м мгла {туман} 1/0
[Cs]
+28.1 +25.9 88 +42 +42 опасность
перегрева
1012.1 1011.7 +25.7 +34.0
09 16.10 С 1 6000 м мгла {туман} ясно +27.7 +26.5 93 +42 +42 опасность
перегрева
1011.6 1011.2
12 16.10 Ю 2 6000 м мгла {туман} ясно +27.3 +25.7 91 +40 +40 очень
душно
1011.1 1010.7 +26.8 +34.0
15 16.10 С 1 6000 м мгла {туман} ясно +29.0 +25.6 82 +43 +47 опасность
перегрева
1013.3 1012.9
18 16.10 З 1 6000 м мгла {туман} 1/1 600 м
[Cu hum]
+32.4 +26.4 71 +49 +65 опасность
перегрева
1013.3 1012.9 +26.6 +33.8
21 16.10 ЮЗ 2 7000 м мгла {туман} 3/3 600 м
[Cb cap]
+32.8 +27.2 72 +51 +59 опасность
перегрева
1011.3 1010.9
00 17.10 З 3 7000 м мгла {туман} 5/3 300 м
[Cb cap As op Ci fib]
+31.0 +27.1 80 +49 +49 опасность
перегрева
1010.5 1010.1 +26.6 +34.1
03 17.10 С 3 6000 м мгла {туман} ясно +29.7 +24.2 72 +41 +41 опасность
перегрева
1011.5 1011.1
06 17.10 С 2 6000 м мгла {туман} ясно +28.6 +24.3 78 +40 +40 очень
душно
1011.7 1011.3 +26.6 +34.1
09 17.10 С 2 6000 м мгла {туман} ясно +27.0 +25.5 92 +40 +40 очень
душно
1011.3 1010.9
12 17.10 С 2 6000 м мгла {туман} ясно +26.7 +24.4 87 +37 +37 очень
душно
1010.7 1010.3 +26.2 +34.1
15 17.10 С 2 7000 м мгла {туман} ясно +28.5 +24.9 81 +41 +45 опасность
перегрева
1012.6 1012.2
18 17.10 З 2 7000 м мгла {туман} 3/0
[Ci fib]
+32.0 +26.8 74 +49 +64 опасность
перегрева
1013.6 1013.2 +26.0 +33.4
21 17.10 ЮЗ 3 6000 м мгла {туман} 3/1 600 м
[Cu hum Ci fib]
+32.6 +26.7 71 +50 +58 опасность
перегрева
1010.6 1010.2
00 18.10 З 4 6000 м мгла {туман} ясно +30.7 +26.9 80 +48 +48 опасность
перегрева
1009.6 1009.3 +26.0 +33.7
03 18.10 СЗ 3 6000 м мгла {туман} ясно +29.7 +26.7 84 +46 +46 опасность
перегрева
1011.2 1010.8
06 18.10 С 1 6000 м мгла {туман} ясно +28.7 +26.2 86 +43 +43 опасность
перегрева
1011.7 1011.3 +26.0 +33.7
09 18.10 С 1 6000 м мгла {туман} ясно +27.8 +26.0 90 +42 +42 опасность
перегрева
1012.8 1012.4
12 18.10 С 2 6000 м мгла {туман} ясно +26.9 +25.6 93 +40 +40 очень
душно
1011.4 1011.0 +26.8 +33.7
15 18.10 С 1 6000 м мгла {туман} ясно +29.4 +24.4 75 +42 +46 опасность
перегрева
1012.8 1012.4
18 18.10 З 2 6000 м мгла {туман} ясно +33.3 +26.2 66 +49 +65 опасность
перегрева
1012.5 1012.2 +26.5 +34.0
21 18.10 З 3 6000 м мгла {туман} 1/1 600 м
[Cu med, cong]
+32.1 +26.1 71 +48 +57 опасность
перегрева
1010.6 1010.2
00 19.10 З 3 6000 м мгла {туман} 3/1 300 м
[Cu med, cong Cs]
+30.7 +26.8 80 +48 +48 опасность
перегрева
1009.7 1009.3 +26.5 +34.0
03 19.10 З 2 6000 м мгла {туман} ясно +29.8 +26.9 84 +46 +46 опасность
перегрева
1010.3 1009.9
06 19.10 З 1 6000 м мгла {туман} ясно +28.8 +27.0 90 +45 +45 опасность
перегрева
1010.8 1010.4 +26.5 +34.0
12 19.10 С 1 6000 м мгла {туман} 4/1 600 м
[St Ac lent]
+27.4 +25.5 89 +40 +40 очень
душно
1009.8 1009.4 +26.2 +34.0
15 19.10 В 1 6000 м мгла {туман} ясно +29.9 +26.1 80 +45 +49 опасность
перегрева
1010.9 1010.5

 

Местоположение метеостанции Manzanillo (Мексика): широта 19.05 долгота -104.30 высота над уровнем моря 3 м.

В архиве по умолчанию представлена погода в Manzanillo за последнюю неделю. Архивные данные за месяц целиком и за предыдущие месяцы, начиная с января 2011 года, Вы можете получить, выбрав интересующий диапазон дат из раскрывающегося списка и нажав кнопку "Ввод!".

Внимание! Время в таблицах - всемирное. Для получения местного времени необходимо прибавить поправку, которая в Manzanillo равна -6 ч.

Смотрите также архив погоды в соседних городах и на ближайших метеорологических станциях:

Погода в Colima (Мексика) (88 км)
Погода в Ciudad Guzman (Мексика) (120 км)
Погода в Guadalajara (Мексика) (208 км)
Погода в Zamora (Мексика) (234 км)
Погода в Tepic (Мексика) (280 км)
Погода в Morelia (Мексика) (343 км)
Погода в Colotlan (Мексика) (356 км)
Погода в Lagos De Moreno (Мексика) (357 км)
Погода в Aguascalientes (Мексика) (377 км)
Погода в Huejucar (Мексика) (383 км)

Пояснения к столбцам:

Ветер - указаны скорость ветра в м/с - средняя за 10 мин, порывы в срок и между сроками (в фигурных скобках) и направление, откуда дует ветер: С - северный, СВ - северо-восточный, В - восточный, ЮВ - юго-восточный, Ю - южный, ЮЗ - юго-западный, З - западный, СЗ - северо-западный.
Видимость - горизонтальная дальность видимости в метрах или километрах. При видимости от 1 до 10 км при отсутствии осадков обычно наблюдается дымка, при ухудшении видимости до 1 км и менее - туман. В сухую погоду видимость может ухудшаться дымом, пылью или мглою.
Явления - указаны атмосферные явления, наблюдавшиеся в срок или в последний час перед сроком; фигурными скобками обозначены явления, наблюдавшиеся между сроками (за 1-3 часа до срока); квадратными скобками обозначены град или гололедные отложения с указанием их диаметра в мм.
Облачность - указаны через наклонную черту общая и нижняя облачность в баллах и высота нижней границы облаков в метрах; квадратными скобками обозначены формы облаков: Ci - перистые, Cs - перисто-слоистые, Cc - перисто-кучевые, Ac - высококучевые, As - высокослоистые, Sc - слоисто-кучевые, Ns - слоисто-дождевые, Cu - кучевые, Cb - кучево-дождевые. Подробнее классификацию облаков см. в Атласе облаков (PDF).
T - Температура воздуха - температура, измеренная на высоте 2 м над землей.
Td - Температура точки росы - температура, при понижении до которой содержащийся в воздухе водяной пар достигнет насыщения.
f - Относительная влажность воздуха - влажноcть воздуха, измеренная на высоте 2 м над землей.
Te - Эффективная температура - температура, которую ощущает одетый по сезону человек в тени. Характеристика душности погоды. При расчете учитывается влияние влажности воздуха и скорости ветра на теплоощущения человека.
Tes - Эффективная температура на солнце - температура, которую ощущает человек, с поправкой на солнечный нагрев. Характеристика знойности погоды. Зависит от высоты солнца над горизонтом, облачности и скорости ветра. Ночью, в пасмурную погоду, а также при ветре 12 м/с и более поправка равна нулю.
P - Атмосферное давление - приведенное к уровню моря атмосферное давление.
Po - Атмосферное давление - измеренное на уровне метеостанции атмосферное давление.
Tmin - Минимальная температура - минимум температуры воздуха на высоте 2 м над землей.
Tmax - Максимальная температура - максимум температуры воздуха на высоте 2 м над землей.
R - Количество осадков - Количество выпавших осадков за период времени, мм. При наведении курсора мыши на число - период времени, за который выпало указанное количество осадков.
R24 - Количество осадков - Количество выпавших осадков за 24 часа, мм.
S - Снежный покров - Высота снежного покрова, см. При наведении курсора мыши на число - состояние снежного покрова и степень покрытия местности в баллах.